Погода в Границе

Чехия     50°18′19″N   12°10′34″E
темп.,
°C
ветер,
м/с
пор.,
м/с
влажн.,
%
обл.,
%
осадки,
мм/ч
давл.,
гПа
погр.,
м
6 мая, чт
чт623:00+2зюз41190100 0.1 1012605
02:00+1зюз3109489 0.1 1012446
05:00+2юз41089100 0.0 1011726
08:00+2юз4991100 0.1 1011721
11:00+4зюз4978100 0.2 1011992
14:00+6юз587497 0.9 10091289
17:00+8юз4662100 0.2 10061420
20:00+4ююз3898100 2.0 1006938
7 мая, пт
пт723:00+3ю21098100 3.7 1005784
02:00+4зюз31096100 9.3 1003910
05:00+3з51198100 1.5 1005969
08:00+2з51298100 1.9 1009938
11:00+3з61186100 0.3 10121132
14:00+7з81248100 0.6 10122355
17:00+6зсз6126396 0.9 10141840
20:00+4сз49690 1.2 1017793
8 мая, сб
сб823:000юз11865 0.0 102010
02:00−1ююз11855 0.0 102113
05:00−2ю11875 0.0 102113
08:00+4ююз236297 0.0 1021279
11:00+10зюз3546100 0.1 10192177
14:00+12зюз3437100 0.2 10182264
17:00+13юз3537100 0.0 10171996
20:00+8ю226695 0.0 101737
9 мая, вс
вс923:00+5юв238193 0.0 101753
02:00+4юв248368 0.0 101778
05:00+3юв24875 0.0 101671
08:00+8юв3668100 0.0 1015199
11:00+16ююв474970 0.0 1013632
14:00+21ююв463763 0.0 10111254
17:00+21юв5646100 0.0 10091084
20:00+15юв397797 0.0 1009255
10 мая, пн
пн1023:00+10вюв388823 0.0 1011155
02:00+8вюв3894100 0.0 1011147
05:00+6юв2596100 0.0 1011113
08:00+10ююв24773 0.0 1011202
11:00+18юв22550 0.0 1009582
14:00+22юв33480 0.0 10071127
17:00+22юв4553100 0.0 10071228
20:00+17вюв2479100 0.0 100595